カタログに戻る

CZ-6A DEB

運用中SSO
NORAD 54622·DEBRIS·🇨🇳 China

打ち上げ Nov 11, 2022 から Taiyuan Satellite Launch Center

Loading…

次のパス (今後24時間)

TLE

最新Source: Space-Track

元期: Sep 14, 2026, 10:38 UTC

1 54622U 22151NY  26257.44340584  .00001728  00000-0  83180-3 0  9995
2 54622  98.8147 262.2473 0043013  62.0373 298.5147 14.19594704196923

AllMySatでCZ-6A DEBをリアルタイム追跡

Download on the App Store